FENGYUN 1C DEB, 31823

Orbit data source: Space-Track

FENGYUN 1C DEB, 31823 is space debris in SSO originally from a launch on Mon, 10 May 1999 UTC launched from the Taiyaun Space Center, China (TSC). Fengyun 1C debris stems from the Chinese weather satellite Fengyun-1C, which was intentionally destroyed by a Chinese anti-satellite missile in 2007. This event dramatically increased the amount of space debris, with thousands of trackable fragments posing hazards to satellites and human spaceflight. The Fengyun 1C debris cloud has become a focal point in discussions about space sustainability and the need for international regulations to prevent the creation of new debris.

Loading next visibility...
Identifier
31823, 1999-025CHM
Orbit
SSO
Country
Flag of CNCN / PRC
Related business
Manufacturer
Unknown
Mission
Spacecraft
Bus & Motor
Unknown
Mass
Unknown
Launch date (UTC)
1999-05-10 (27 years ago)
Launch vehicle
Unknown
Launch site
Taiyaun Space Center, China (TSC)
Object type
Payload
Rocket body
Debris
Shape & HBR
Unknown shape, 0.1 m
Radar Cross Section
Medium (>0.1 m² and <1 m²)

Expand to show TLE details & history
Last TLE update: 16 hours ago

TLE from 16 hours ago
0 FENGYUN 1C DEB
1 31823U 99025CHM 26254.18501917  .00005302  00000-0  86051-3 0  9996
2 31823  99.5176  29.5713 0036987 108.9113 251.6105 14.71245624  7158
Epoch: 2026-09-11T04:26Z
TLE epoch observation values (Epoch: 2026-09-11T04:26:25.656Z)
Latitude
0.00007°
Longitude
-27.24762°
Altitude
668.348 km
Speed
7.518 km/s
True Right ascension
01h 58m 17s
True Declination
0° 00' 00"
Sunlit
Object was in full shadow at epoch
Visualization orbit readout
Latitude
Unknown
Longitude
Unknown
Altitude
Unknown
Speed
Unknown
Apparent Right ascension
Unknown
Apparent Declination
Unknown
Sunlit
N/A
Visualization observer readout
Local Sidereal Time
13:18:26
Azimuth
Unknown
Elevation
Unknown
Doppler factor
Unknown
Orbital elements
Apogee altitude
680.237 km
Perigee altitude
628.216 km
Semi-major axis
7,032.363 km
Eccentricity
0.0037
Inclination
99.5176°
RAAN
29.5713°
Arg. of periapsis
108.9113°
True anomaly
251.20889°
Mean anomaly
251.6105°
Eccentric anomaly
251.40964°
Mean motion
3.68037 °/min
Orbital period
97.82 mins
BSTAR
0.00086051
Loading maneuver chart data...
Computing Atmospheric mass density...
Loading historical data...
Loading historical data...
Loading historical data...
Loading historical data...
Loading historical data...
Loading historical data...
Loading historical data...

Documentation

Showing up to 5 results
|